Content
SEND FEEDBACK

Daily
Averages
Monthly
Summary
Canada

CALGARY, ALBERTA


Home > North America > Canada > Alberta
Elevation: 3556 feet     Latitude: 51 06N     Longitude: 114 01W

WEATHER
 
SELECT A DAY
Number of Records: 192,395;   Date Range: 1/1/95 - 8/10/14
 
SHARE

PRINT THIS DATA

[ ← Previous Day ]
WEATHER ALMANAC - APRIL 30, 2013
[ Next Day → ]
[ °C ]   °F
Weather ElementAverageHighLow
Temperature29.5 °F37.4 °F (3:00 pm)19.4 °F (7:00 am)
Dewpoint12.7 °F23 °F (12:00 am)8.6 °F (7:00 am)
Humidity51 %86 % (1:00 am)19 % (6:00 pm)
Barometer30.21 in30.40 in (11:00 pm)29.95 in (12:00 am)
Wind Speed12.2 mph24.2 mph (6:00 am)
Wind Gust31.1 mph (8:00 am)
Weather ElementAverage
Visibility21.1 mi
Wind DirectionSW (228 °)

Weather ElementTotal
Precipitation---
Heating Degree Days36.6 (Base 65)
Averaged from 30 records on April 30, 2013
WEATHER CONDITIONS BREAKOUT
WIND DIRECTION BREAKOUT
WEATHER BY HOUR - APRIL 30, 2013
[ °C ]   °F
Local TimeTemperatureDewpointHumidityBarometerVisibilityWind DirectionWind SpeedGust SpeedPrecipitationEventsConditions
12:00 AM28.4 °F23.0 °F80 %29.95 in15.0 miNorth (350°)8.1 mphMostly Cloudy
1:00 AM26.6 °F23.0 °F86 %29.98 in15.0 miNorth (360°)9.2 mphMostly Cloudy
2:00 AM26.6 °F23.0 °F86 %30.00 in15.0 miNorth (360°)9.2 mph17.3 mphMostly Cloudy
3:00 AM26.6 °F23.0 °F86 %30.03 in15.0 miNNE (20°)13.8 mphOvercast
4:00 AM24.8 °F15.8 °F69 %30.06 in15.0 miNorth (10°)20.7 mph26.5 mphMostly Cloudy
5:00 AM23.0 °F12.2 °F63 %30.09 in15.0 miNorth (360°)23.0 mphMostly Cloudy
6:00 AM21.2 °F10.4 °F63 %30.11 in15.0 miNorth (350°)24.2 mphMostly Cloudy
6:00 AM21.0 °F10.0 °F51 %30.11 in15.0 miNorth (350°)24.2 mphMostly Cloudy
7:00 AM19.4 °F8.6 °F63 %30.14 in15.0 miNorth (350°)21.9 mph28.8 mphMostly Cloudy
8:00 AM21.2 °F8.6 °F58 %30.17 in25.0 miNorth (350°)24.2 mph31.1 mphMostly Cloudy
9:00 AM24.8 °F10.4 °F54 %30.20 in25.0 miNorth (350°)21.9 mph28.8 mphMostly Cloudy
10:00 AM26.6 °F10.4 °F51 %30.22 in25.0 miNorth (350°)19.6 mph26.5 mphMostly Cloudy
11:00 AM28.4 °F10.4 °F47 %30.22 in25.0 miNorth (350°)12.7 mph19.6 mphMostly Cloudy
12:00 PM31.0 °F10.0 °F27 %30.24 in25.0 miNorth (350°)13.8 mphScattered Clouds
12:00 PM30.2 °F10.4 °F44 %30.24 in25.0 miNorth (350°)11.5 mph21.9 mphMostly Cloudy
1:00 PM32.0 °F8.6 °F38 %30.24 in25.0 miWNW (300°)10.4 mphMostly Cloudy
2:00 PM35.6 °F10.4 °F35 %30.23 in25.0 miNNE (30°)16.1 mphScattered Clouds
3:00 PM37.4 °F8.6 °F30 %30.24 in30.0 miNorth (10°)12.7 mphScattered Clouds
3:08 PM35.6 °F8.6 °F33 %30.25 in30.0 miNNE (20°)5.8 mph17.3 mphScattered Clouds
4:00 PM35.6 °F10.4 °F35 %30.26 inNorth (360°)8.1 mph18.4 mphMostly Cloudy
5:00 PM35.6 °F8.6 °F33 %30.27 in30.0 miENE (60°)3.5 mphMostly Cloudy
6:00 PM36.0 °F9.0 °F19 %30.29 in28.0 miESE (120°)4.6 mphPartly Cloudy
6:00 PM35.6 °F8.6 °F33 %30.29 in30.0 miESE (120°)4.6 mphMostly Cloudy
7:00 PM35.6 °F10.4 °F35 %30.32 in30.0 miEast (100°)8.1 mphMostly Cloudy
7:38 PM33.8 °F10.4 °F38 %30.34 in20.0 miENE (70°)5.8 mphSnowLight Snow
8:00 PM33.8 °F12.2 °F41 %30.34 in20.0 miNorth (10°)4.6 mphSnowLight Snow
9:00 PM32.0 °F12.2 °F44 %30.36 in15.0 miNE (50°)5.8 mphSnowLight Snow
10:00 PM30.2 °F17.6 °F60 %30.39 in15.0 miWest (280°)5.8 mphSnowLight Snow
10:34 PM28.4 °F17.6 °F64 %30.39 in15.0 miNorth (350°)6.9 mphScattered Clouds
11:00 PM28.4 °F17.6 °F64 %30.40 in15.0 miNorth (350°)5.8 mphScattered Clouds
Hourly data recorded from CYYC, located miles away from Calgary, Alberta







STORIES FROM OUR PARTNERS